Погода в Узытамаке

Россия / Республика Башкортостан     54°38′45″N   55°33′19″E
темп.,
°C
ветер,
м/с
пор.,
м/с
влажн.,
%
обл.,
%
осадки,
мм/ч
давл.,
гПа
погр.,
м
14 апреля, ср
ср1423:00+9ю33905 0.0 103538
02:00+7ю34885 0.0 103459
05:00+6ююз348958 0.0 103456
08:00+7ю358476 0.0 103498
11:00+11ю35695 0.0 1033332
14:00+15ююв34535 0.0 1031621
17:00+17ююв34465 0.0 1029828
20:00+14ююв22606 0.0 102811
15 апреля, чт
чт1523:00+11ю33725 0.0 102820
02:00+8ю33735 0.0 102742
05:00+6ю33775 0.0 102733
08:00+7ю36754 0.0 1026117
11:00+13ю46564 0.0 1025380
14:00+17ююз56440 0.0 1023885
17:00+19ююз45360 0.0 10211416
20:00+15ююз33502 0.0 102018
16 апреля, пт
пт1623:00+12ююз225899 0.0 101912
02:00+10ююз226299 0.0 101914
05:00+9зюз226438 0.0 101810
08:00+9ссз22695 0.0 101925
11:00+13с45655 0.0 1019535
14:00+15с666139 0.0 10191067
17:00+12ссв776796 0.0 1020906
20:00+9ссв687767 0.0 1022645
17 апреля, сб
сб1723:00+5ссв5108611 0.0 1023459
02:00+4ссв511855 0.0 1022354
05:00+2с5118346 0.0 1023275
08:00+3с5117467 0.0 1023346
11:00+8ссв68505 0.0 1023935
14:00+10с78370 0.0 10231368
17:00+10с67345 0.0 10231661
20:00+8с365036 0.0 1024198
18 апреля, вс
вс1823:00+6с49635 0.0 1025274
02:00+4ссз36695 0.0 1025139
05:00+2ссз49755 0.0 1026201
08:00+3с611685 0.0 1027549
11:00+5с79442 0.0 10271085
14:00+8с794459 0.0 10271600
17:00+8с81040100 0.0 10271981
20:00+6ссв584698 0.0 10291093